Content
SEND FEEDBACK

Daily
Averages
Monthly
Summary
Ireland

CLAREMORRIS, IRELAND


Home > Europe > Ireland
Elevation: 226 feet     Latitude: 53 43N     Longitude: 008 59W

WEATHER
 
SELECT A DAY
Number of Records: 195,594;   Date Range: 5/30/97 - 11/24/14
 
SHARE

PRINT THIS DATA

[ ← Previous Day ]
WEATHER ALMANAC - MARCH 15, 2013
[ Next Day → ]
[ °C ]   °F
Weather ElementAverageHighLow
Temperature39.1 °F44.6 °F (1:30 pm)33.8 °F (7:30 am)
Dewpoint34.4 °F37.4 °F (6:00 am)30.2 °F (2:30 pm)
Humidity83.6 %100 % (6:00 am)61 % (1:30 pm)
Barometer29.42 in29.49 in (6:00 am)29.36 in (4:00 pm)
Wind Speed11.3 mph20.7 mph (11:30 am)
Wind Gust41.4 mph (11:30 am)
Weather ElementAverage
Visibility7.7 mi
Wind DirectionWSW (252.8 °)

Weather ElementTotal
Precipitation---
Heating Degree Days25.8 (Base 65)
Averaged from 25 records on March 15, 2013
WEATHER CONDITIONS BREAKOUT
WIND DIRECTION BREAKOUT
WEATHER BY HOUR - MARCH 15, 2013
[ °C ]   °F
Local TimeTemperatureDewpointHumidityBarometerVisibilityWind DirectionWind SpeedGust SpeedPrecipitationEventsConditions
6:00 AM38.0 °F37.0 °F93 %29.49 in19.0 miWSW (250°)8.9 mphRainLight Rain Showers
6:00 AM37.4 °F37.4 °F100 %29.44 in6.2 miWSW (250°)9.2 mphScattered Clouds
7:00 AM35.6 °F35.6 °F100 %29.44 in6.2 miSW (220°)4.6 mphScattered Clouds
7:30 AM33.8 °F33.8 °F100 %29.44 in6.2 miSW (220°)4.6 mphPartly Cloudy
8:00 AM37.4 °F33.8 °F87 %29.44 in6.2 miWSW (240°)10.4 mphPartly Cloudy
8:30 AM37.4 °F35.6 °F93 %29.44 in6.2 miWSW (250°)9.2 mphRainLight Rain Showers
9:00 AM35.6 °F33.8 °F93 %29.44 in6.2 miWSW (250°)11.5 mphPartly Cloudy
9:30 AM39.2 °F37.4 °F93 %29.44 in6.2 miSW (230°)9.2 mphPartly Cloudy
10:00 AM37.4 °F35.6 °F93 %29.44 in6.2 miSSW (210°)9.2 mphPartly Cloudy
10:30 AM41.0 °F35.6 °F81 %29.44 in6.2 miWSW (240°)15.0 mphPartly Cloudy
11:00 AM42.8 °F35.6 °F76 %29.42 in6.2 miWSW (240°)13.8 mphScattered Clouds
11:30 AM39.2 °F35.6 °F87 %29.44 in1.7 miWest (260°)20.7 mph41.4 mphRainLight Rain Showers
12:00 PM37.4 °F33.8 °F87 %29.42 in6.2 miWSW (250°)9.2 mphScattered Clouds
12:00 PM37.0 °F33.0 °F81 %29.47 in22.0 miWSW (250°)8.9 mphHailLight Hail Showers
12:30 PM41.0 °F37.4 °F87 %29.42 in6.2 miSSW (210°)8.1 mphScattered Clouds
1:00 PM42.8 °F32.0 °F66 %29.42 in6.2 miWSW (250°)17.3 mphScattered Clouds
1:30 PM44.6 °F32.0 °F61 %29.39 in6.2 miWSW (250°)15.0 mphMostly Cloudy
2:00 PM42.8 °F33.8 °F70 %29.39 in6.2 miWSW (250°)20.7 mphMostly Cloudy
2:30 PM41.0 °F30.2 °F65 %29.39 in6.2 miWest (260°)18.4 mphMostly Cloudy
3:00 PM42.8 °F30.2 °F61 %29.39 in6.2 miWest (260°)16.1 mphScattered Clouds
3:30 PM39.2 °F35.6 °F87 %29.39 in6.2 miNW (320°)11.5 mphRainLight Rain Showers
4:00 PM39.2 °F33.8 °F81 %29.36 in6.2 miWNW (290°)5.8 mphMostly Cloudy
4:30 PM39.2 °F33.8 °F81 %29.36 in6.2 miWest (270°)5.8 mphMostly Cloudy
5:00 PM39.2 °F33.8 °F81 %29.36 in6.2 miWest (270°)11.5 mphMostly Cloudy
6:00 PM36.0 °F33.0 °F86 %29.40 in19.0 miNNW (330°)6.7 mphRainLight Rain Showers
Hourly data recorded from EIKN, located miles away from Claremorris, Ireland







STORIES FROM OUR PARTNERS